Weather History for Augusta, ME

Change the Weather History Date:

Thursday, November 8, 2012

  Actual Average Record
Temperature  
Mean Temperature 33 °F -  
Max Temperature 36 °F 44 °F 64 °F (2011)
Min Temperature 30 °F 31 °F 21 °F (2002)
Degree Days  
Heating Degree Days 32    
Moisture  
Dew Point 32 °F    
Average Humidity 93    
Maximum Humidity 100    
Minimum Humidity 87    
Precipitation  
Precipitation 0.83 in - - ()
Sea Level Pressure  
Sea Level Pressure 29.81 in    
Wind  
Wind Speed 17 mph (North)    
Max Wind Speed 23 mph    
Max Gust Speed 37 mph    
Visibility 4 miles    
Events Rain , Snow    
Averages and records for this station are not official NWS values.
T = Trace of Precipitation, MM = Missing Value Source: NWS Daily Summary

Daily Weather History Graph

Daily Weather History Graph

Search for Another Location

Airport:

Trip Planner

Search our weather history database for the weather conditions in past years. The results will help you decide how hot, cold, wet, or windy it might be!

Date:

Astronomy

Nov. 08, 2012 Rise Set
Actual Time 6:26 AM EST 4:19 PM EST
Civil Twilight 5:55 AM EST 4:49 PM EST
Nautical Twilight 5:20 AM EST 5:24 PM EST
Astronomical Twilight 4:46 AM EST 5:58 PM EST
Moon 12:05 AM EST (11/8) 1:10 PM EST (11/8)
Length of Visible Light 10h 54m
Length of Day
9h 52m
Waning Crescent, 33% of the Moon is Illuminated
Nov 8
Waning Crescent
Nov 13
New
Nov 20
First Quarter
Nov 28
Full
Dec 6
Last Quarter

Hourly Weather History & Observations

Time (EST) Temp. Windchill Dew Point Humidity Pressure Visibility Wind Dir Wind Speed Gust Speed Precip Events Conditions
12:08 AM 30.2 °F 20.2 °F 28.4 °F 93% 29.94 in 1.0 mi North 12.7 mph 20.7 mph 0.00 in Snow Light Snow
12:15 AM 30.2 °F 20.2 °F 28.4 °F 93% 29.94 in 1.0 mi North 12.7 mph 21.9 mph 0.00 in Snow Light Snow
12:53 AM 30.0 °F 17.9 °F 28.0 °F 92% 29.93 in 1.2 mi North 18.4 mph 25.3 mph 0.01 in Snow Light Snow
1:23 AM 30.2 °F 17.1 °F 28.4 °F 93% 29.90 in 1.5 mi North 21.9 mph 27.6 mph 0.00 in Snow Light Snow
1:49 AM 30.2 °F 18.9 °F 28.4 °F 93% 29.89 in 1.5 mi North 16.1 mph 27.6 mph 0.00 in Snow Light Snow
1:53 AM 30.9 °F 19.4 °F 28.9 °F 92% 29.91 in 1.5 mi NNE 17.3 mph 27.6 mph 0.00 in Snow Light Snow
2:17 AM 30.2 °F 18.5 °F 28.4 °F 93% 29.88 in 1.2 mi North 17.3 mph 26.5 mph 0.00 in Snow Light Snow
2:53 AM 32.0 °F 20.8 °F 28.9 °F 88% 29.88 in 1.8 mi NNE 17.3 mph 28.8 mph 0.01 in Snow Light Snow
3:53 AM 32.0 °F 20.8 °F 30.0 °F 92% 29.86 in 1.5 mi North 17.3 mph 26.5 mph 0.01 in Snow Light Snow
4:53 AM 32.0 °F 20.5 °F 30.9 °F 96% 29.85 in 1.2 mi North 18.4 mph 25.3 mph 0.01 in Snow Light Snow
5:24 AM 32.0 °F 20.5 °F 30.2 °F 93% 29.83 in 2.0 mi North 18.4 mph 26.5 mph 0.00 in Snow Light Snow
5:41 AM 32.0 °F 20.5 °F 30.2 °F 93% 29.83 in 4.0 mi North 18.4 mph 27.6 mph 0.00 in Snow Light Snow
5:53 AM 32.0 °F 20.8 °F 30.9 °F 96% 29.84 in 4.0 mi NNE 17.3 mph 27.6 mph 0.00 in Snow Light Snow
6:29 AM 33.8 °F 23.5 °F 30.2 °F 87% 29.82 in 6.0 mi North 16.1 mph 24.2 mph 0.00 in   Overcast
6:43 AM 33.8 °F 23.2 °F 30.2 °F 87% 29.82 in 4.0 mi North 17.3 mph 26.5 mph 0.00 in Snow Light Snow
6:53 AM 33.1 °F 21.5 °F 30.9 °F 92% 29.83 in 4.0 mi NNE 19.6 mph 26.5 mph 0.00 in Rain Light Rain
7:44 AM 33.8 °F 23.2 °F 30.2 °F 87% 29.82 in 6.0 mi NNE 17.3 mph 26.5 mph 0.01 in Rain Light Rain
7:53 AM 33.1 °F 22.2 °F 30.9 °F 92% 29.83 in 6.0 mi North 17.3 mph 34.5 mph 0.01 in Rain Light Rain
8:08 AM 33.8 °F 23.5 °F 30.2 °F 87% 29.81 in 1.8 mi North 16.1 mph 28.8 mph 0.01 in Rain Rain
8:21 AM 33.8 °F 22.5 °F 30.2 °F 87% 29.81 in 2.5 mi North 19.6 mph 25.3 mph 0.02 in Rain Light Rain
8:53 AM 33.1 °F 21.9 °F 32.0 °F 96% 29.82 in 1.5 mi NNE 18.4 mph 28.8 mph 0.03 in Snow Light Snow
9:10 AM 33.8 °F 22.2 °F 32.0 °F 93% 29.81 in 3.0 mi North 20.7 mph 27.6 mph 0.02 in Rain Light Rain
9:24 AM 33.8 °F 22.8 °F 32.0 °F 93% 29.81 in 3.0 mi North 18.4 mph 27.6 mph 0.02 in   Overcast
9:53 AM 34.0 °F 22.7 °F 32.0 °F 92% 29.81 in 10.0 mi North 19.6 mph 32.2 mph 0.02 in   Overcast
10:53 AM 35.1 °F 24.1 °F 33.1 °F 92% 29.79 in 5.0 mi North 19.6 mph 34.5 mph 0.00 in   Overcast
11:24 AM 35.6 °F 24.5 °F 33.8 °F 93% 29.75 in 2.5 mi North 20.7 mph 34.5 mph 0.00 in Rain Light Rain
11:44 AM 35.6 °F 25.9 °F 33.8 °F 93% 29.75 in 4.0 mi NNE 16.1 mph 27.6 mph 0.01 in Rain Light Rain
11:53 AM 35.1 °F 23.5 °F 33.1 °F 92% 29.76 in 6.0 mi NNE 21.9 mph 36.8 mph 0.01 in Rain Light Rain
12:53 PM 36.0 °F 25.0 °F 34.0 °F 93% 29.75 in 4.0 mi North 20.7 mph 31.1 mph 0.00 in   Overcast
1:29 PM 35.6 °F 24.5 °F 33.8 °F 93% 29.74 in 2.0 mi NNE 20.7 mph 28.8 mph 0.00 in Rain Light Rain
1:37 PM 35.6 °F 25.5 °F 33.8 °F 93% 29.74 in 1.5 mi North 17.3 mph 28.8 mph 0.01 in Rain Rain
1:49 PM 35.6 °F 24.0 °F 33.8 °F 93% 29.75 in 2.5 mi NNE 23.0 mph 32.2 mph 0.02 in Rain Light Rain
1:53 PM 36.0 °F 25.0 °F 34.0 °F 93% 29.76 in 2.5 mi NNE 20.7 mph 32.2 mph 0.02 in Rain Light Rain
2:35 PM 35.6 °F 24.2 °F 35.6 °F 100% 29.74 in 4.0 mi North 21.9 mph 33.4 mph 0.06 in Rain Light Rain
2:53 PM 36.0 °F 25.6 °F 35.1 °F 97% 29.75 in 5.0 mi North 18.4 mph 29.9 mph 0.08 in Rain Light Rain
3:53 PM 36.0 °F 26.0 °F 35.1 °F 97% 29.76 in 10.0 mi North 17.3 mph 24.2 mph 0.04 in   Overcast
4:37 PM 35.6 °F 26.2 °F 35.6 °F 100% 29.75 in 5.0 mi North 15.0 mph 21.9 mph 0.03 in Rain Rain
4:53 PM 36.0 °F 26.7 °F 35.1 °F 97% 29.76 in 7.0 mi North 15.0 mph 23.0 mph 0.06 in Rain Rain
5:53 PM 36.0 °F 27.5 °F 35.1 °F 97% 29.77 in 8.0 mi North 12.7 mph - 0.04 in Rain Light Rain
6:53 PM 35.1 °F 25.9 °F 34.0 °F 96% 29.78 in 7.0 mi North 13.8 mph 24.2 mph 0.10 in Rain Rain
7:08 PM 35.6 °F 25.2 °F 33.8 °F 93% 29.76 in 7.0 mi North 18.4 mph - 0.03 in Rain Rain
7:32 PM 35.6 °F 25.5 °F 33.8 °F 93% 29.76 in 8.0 mi North 17.3 mph 25.3 mph 0.07 in Rain Rain
7:53 PM 35.1 °F 24.5 °F 33.1 °F 92% 29.77 in 7.0 mi North 18.4 mph 26.5 mph 0.10 in Rain Rain
8:05 PM 35.6 °F 25.9 °F 33.8 °F 93% 29.76 in 7.0 mi North 16.1 mph 23.0 mph 0.01 in Rain Rain
8:53 PM 35.1 °F 26.9 °F 34.0 °F 96% 29.77 in 5.0 mi North 11.5 mph 18.4 mph 0.10 in Rain Rain
9:53 PM 35.1 °F 24.8 °F 33.1 °F 92% 29.76 in 8.0 mi North 17.3 mph 24.2 mph 0.13 in Rain Rain
10:53 PM 34.0 °F 23.8 °F 32.0 °F 92% 29.76 in 10.0 mi North 16.1 mph 24.2 mph 0.05 in Rain Light Rain
11:53 PM 35.1 °F 24.1 °F 33.1 °F 92% 29.76 in 10.0 mi NNW 19.6 mph 26.5 mph 0.00 in   Overcast